Regional Weather Roundup
Issued by NWS

Home | Current Version | Previous Version | Graphics & Text | Print | Product List | Glossary On
Versions: 1 2 3 4 5 6 7 8 9 10 11 12 13 14 15 16 17 18 19 20 21 22 23 24 25 26 27
000
ASUS45 KCYS 240710
RWRWY

WYOMING REGIONAL WEATHER ROUNDUP
NATIONAL WEATHER SERVICE CHEYENNE WY
100 AM MDT WED AUG 24 2016

NOTE:  "FAIR" INDICATES FEW OR NO CLOUDS BELOW 12,000 FEET
WITH NO SIGNIFICANT WEATHER AND/OR OBSTRUCTIONS TO VISIBILITY.

WYZ001-240800-
YELLOWSTONE NATIONAL PARK

CITY           SKY/WX    TMP DP  RH WIND       PRES   REMARKS
LK YELLOWSTONE   N/A     47  21  35 VRB3      30.34S
W YELLOWSTONE  NOT AVBL

$$
WYZ002>013-054>058-071-098>099-240800-
NORTHERN WYOMING

CITY           SKY/WX    TMP DP  RH WIND       PRES   REMARKS
JACKSON        FAIR      39  23  52 NE6       30.25S WCI  35
CODY           FAIR      55  37  50 NW12G20   30.26R
GREYBULL       FAIR      63  37  38 NW16      30.14R
WORLAND        FAIR      61  33  35 NW12      30.14R
SHERIDAN       FAIR      54  42  64 NW10      30.22S
BUFFALO        FAIR      58  36  43 NW15G25   30.24S
GILLETTE       FAIR      59  34  39 N8        30.17R
HULETT         FAIR      59  34  38 CALM      30.18R
NEWCASTLE      FAIR      59  28  31 E5        30.15R

$$
WYZ014>020-022>026-101>103-240800-
CENTRAL WYOMING

CITY           SKY/WX    TMP DP  RH WIND       PRES   REMARKS
BIG PINEY      FAIR      41  14  33 E3        30.28S
PINEDALE       FAIR      37  19  48 W6        30.29S WCI  33
DUBOIS         CLOUDY    45  18  33 W6        30.28R
LANDER         FAIR      57  24  28 SW3       30.22S
RIVERTON       FAIR      54  22  28 NW9       30.22R
CASPER         FAIR      54  26  34 NE9       30.19R
DOUGLAS        FAIR      60  28  29 E14       30.15R

$$
WYZ021-027>030-104>119-240800-
SOUTHERN WYOMING

CITY           SKY/WX    TMP DP  RH WIND       PRES   REMARKS
EVANSTON       FAIR      56  21  25 E3        30.28S
FORT BRIDGER   FAIR      55  19  23 W7        30.30S
ROCK SPRINGS   FAIR      56  12  17 CALM      30.25R
DIXON          FAIR      56  41  57 CALM      30.28S
RAWLINS        FAIR      60  37  42 W20       30.23R
SARATOGA       FAIR      54  36  50 SE7       30.26S
LARAMIE        FAIR      55  37  50 S13       30.25S
CHEYENNE       FAIR      60  40  47 SW9       30.18S
TORRINGTON     FAIR      55  38  52 NE8       30.09R
PINE BLUFFS    FAIR      55  36  47 CALM      30.15S

$$




USA.gov is the U.S. government's official web portal to all federal, state and local government web resources and services.